[Date Prev][Date Next][Thread Prev][Thread Next] - [Date Index][Thread Index][Author Index]
2 Line ISS Keps 6-12
- Subject: [sarex] 2 Line ISS Keps 6-12
- From: "Dave Larsen PhD" <doc@xxxxxxxxxxx>
- Date: Tue, 12 Jun 2001 06:34:02 -0700
ISS
1 25544U 98067A 01163.44398148 .00038071 00000-0 43365-3 0 749
2 25544 51.5705 112.6368 0017368 152.2657 339.6804 15.61693137146337
----
Via the sarex mailing list at AMSAT.ORG courtesy of AMSAT-NA.
To unsubscribe, send "unsubscribe sarex" to Majordomo@amsat.org
AMSAT Home